DELTA 1 DEB

Satellite information

Favourite Embed

Satellite Type and Status

DEBRISIN ORBIT

Key statistics

Satellite DELTA 1 DEB at a glance.

Uptime

20775

Days in orbit

Revolutions

≈ 12.4

Per day

Orbit

SSO

Sun Synchronous Orbit

Inclination

101.9

Latest

Satellite identification and parameters

Extended collection of information and parameters for DELTA 1 DEB.

Object identification

Identified? True

Debris? True

Object name: DELTA 1 DEB

International designator: 1968-114J

Object number (NORAD): 42082

Object ID (CCSDS): 42082

Country: UNITED STATES OF AMERICA (US)

Current information (Y/N): Y

RCS size: SMALL

Orbital parameters

Period: 115.869 minutes

Inclination: 101.9446 deg

SMA: 7872.988 km

Apoapsis: 1564.321 km

Periapsis: 1425.385 km

RAAN: 251.097 deg

Eccentricy: 0.0088236

Argument of periapsis: 17.6071 deg

Mean anomaly: 156.2112 deg

Mean motion: 12.42777473 rev/day

Mean motion (dot): 0.00000098 rev/day2

B* drag term: 0.0010147 1/REarth

Two-line elements (TLE)

Creation date: Oct. 31, 2025, 6:16 p.m.

Reference frame: TEME

Reference center: EARTH

Epoch: Oct. 31, 2025, 2:18 p.m. UTC

TLE line 0: 0 DELTA 1 DEB

TLE line 1: 1 42082U 68114J 25304.59623413 .00000098 00000-0 10147-2 0 9995

TLE line 2: 2 42082 101.9446 251.0970 0088236 17.6071 156.2112 12.42777473542010

Live tracking on map

Real-time ground track for satellite DELTA 1 DEB.

In-orbit conjunctions

A list of the most updated potential collisions computed for object DELTA 1 DEB.

Target Orbit TCA Probability of collision Miss distance Type
COSMOS 2131 LEO 2025-10-06 16:56:09 0.0004906533 276.0 (m) PAYLOAD
COSMOS 1823 DEB LEO 2024-11-09 05:34:10 0.0001243958 268.0 (m) DEBRIS

Associated space launch

The ESSA series was the second generation of US meterological satellites after the TIROS (Television & Infra-Red Observation Satellite) series. They were also called OT (Operational TIROS), TOS (TIROS Operational Satellite).

DELTA 1 DEB was lifted into orbit during the mission ‘Thor Delta N | ESSA 8’, on board a Thor Delta N space rocket.

The launch took place on Dec. 15, 1968, 5:21 p.m. from Space Launch Complex 2E.

For more information about the launch, click the button.

Launch to space Thor Delta N | ESSA 8
Thor Delta N | ESSA 8

Agency: N/A

Status: Launch Successful

Launch date: Dec. 15, 1968, 5:21 p.m. UTC

Rocket: Thor Delta N

Launch pad: Space Launch Complex 2E

Location: Vandenberg SFB, CA, USA

...

Latest news about this satellite

There are no fresh news available about this satellite. Check back as we update our databases every day.


Newsletter sign-up

Weekly statistics, charts and insights to help you stay on top of the space industry.